Time,TemperatureF,DewpointF,PressureIn,WindDirection,WindDirectionDegrees,WindSpeedMPH,WindSpeedGustMPH,Humidity,HourlyPrecipIn,Conditions,Clouds,dailyrainin,SoftwareType,DateUTC
2016-09-25 00:05:00,67.0,64.0,-100.00,South,170,16.0,22.0,90,-99.99,,,-99.99,,2016-09-25 05:05:00,
2016-09-25 00:14:00,67.0,64.0,-100.00,SSE,160,17.0,24.0,90,-99.99,,,-99.99,,2016-09-25 05:14:00,
2016-09-25 00:49:00,67.0,64.0,-100.00,SSE,160,17.0,22.0,89,-99.99,,,-99.99,,2016-09-25 05:49:00,
2016-09-25 01:04:00,67.0,64.0,-100.00,SSE,155,14.0,22.0,89,-99.99,,,-99.99,,2016-09-25 06:04:00,
2016-09-25 01:14:00,67.0,64.0,-100.00,SSE,150,13.0,18.0,90,-99.99,,,-99.99,,2016-09-25 06:14:00,
2016-09-25 01:25:00,66.0,64.0,-100.00,SSE,155,14.0,18.0,90,-99.99,,,-99.99,,2016-09-25 06:25:00,
2016-09-25 01:34:00,67.0,64.0,-100.00,SSE,160,14.0,19.0,91,-99.99,,,-99.99,,2016-09-25 06:34:00,
2016-09-25 01:45:00,67.0,64.0,-100.00,SSE,160,11.0,19.0,91,-99.99,,,-99.99,,2016-09-25 06:45:00,
2016-09-25 01:54:00,67.0,64.0,-100.00,SSE,165,14.0,19.0,91,-99.99,,,-99.99,,2016-09-25 06:54:00,
2016-09-25 02:14:00,67.0,64.0,-100.00,South,170,14.0,18.0,92,-99.99,,,-99.99,,2016-09-25 07:14:00,
2016-09-25 02:24:00,67.0,64.0,-100.00,SSE,160,13.0,18.0,92,-99.99,,,-99.99,,2016-09-25 07:24:00,
2016-09-25 02:34:00,67.0,64.0,-100.00,SSE,165,12.0,17.0,92,-99.99,,,-99.99,,2016-09-25 07:34:00,
2016-09-25 02:46:00,67.0,64.0,-100.00,South,175,11.0,16.0,92,-99.99,,,-99.99,,2016-09-25 07:46:00,
2016-09-25 02:55:00,67.0,64.0,-100.00,South,175,11.0,15.0,93,-99.99,,,-99.99,,2016-09-25 07:55:00,
2016-09-25 03:03:00,67.0,64.0,-100.00,South,170,10.0,14.0,93,-99.99,,,-99.99,,2016-09-25 08:03:00,
2016-09-25 03:12:00,67.0,64.0,-100.00,South,175,10.0,13.0,93,-99.99,,,-99.99,,2016-09-25 08:12:00,
2016-09-25 03:23:00,67.0,64.0,-100.00,South,175,9.0,13.0,93,-99.99,,,-99.99,,2016-09-25 08:23:00,
2016-09-25 03:33:00,67.0,64.0,-100.00,South,180,9.0,15.0,93,-99.99,,,-99.99,,2016-09-25 08:33:00,
2016-09-25 03:43:00,67.0,64.0,-100.00,South,180,9.0,13.0,93,-99.99,,,-99.99,,2016-09-25 08:43:00,
2016-09-25 04:03:00,67.0,64.0,-100.00,South,190,8.0,14.0,93,-99.99,,,-99.99,,2016-09-25 09:03:00,
2016-09-25 04:13:00,66.0,64.0,-100.00,SSW,195,7.0,12.0,93,-99.99,,,-99.99,,2016-09-25 09:13:00,
2016-09-25 04:23:00,66.0,63.0,-100.00,SSW,195,11.0,16.0,92,-99.99,,,-99.99,,2016-09-25 09:23:00,
2016-09-25 04:44:00,64.0,63.0,-100.00,SSW,200,8.0,11.0,94,-99.99,,,-99.99,,2016-09-25 09:44:00,
2016-09-25 04:56:00,63.0,61.0,-100.00,SSW,200,9.0,-999.0,92,-99.99,,,-99.99,,2016-09-25 09:56:00,